Wind_Speed
18 18 18 17 17 17 16 16 15 15 15 14 14 14 14 15 15 16 17 18 18 19 19 20 20 20 20 21 21 21 22 22 23 23 23 24 25 26 26 26 26 26 26
19 20 19 20 19 19 18 17 17 17 17 17 17 17 17 17 18 18 19 19 20 21 22 22 23 23 23 23 24 24 25 25 26 26 26 27 28 28 29 29 29 29 30
22 22 22 21 21 21 20 20 19 19 19 18 18 19 19 19 20 21 21 21 22 23 24 24 25 26 26 26 26 27 27 28 29 29 30 30 31 31 32 32 32 33 33
23 23 23 22 22 22 23 22 21 21 21 20 20 20 21 21 21 22 22 23 24 24 25 25 26 27 28 28 29 29 30 31 32 32 33 34 35 35 36 36 37 37 38
24 24 24 24 23 23 24 23 23 22 22 21 21 21 21 22 22 23 23 24 25 25 25 26 27 28 29 30 31 32 32 33 35 36 37 37 38 39 40 41 41 41 42
25 25 25 25 26 25 25 24 24 24 24 23 23 23 23 23 24 25 26 26 26 26 27 28 29 30 31 32 34 35 35 36 37 39 39 40 41 43 44 44 44 45 46
27 27 26 26 27 27 26 25 26 26 26 26 26 26 25 26 27 28 28 29 29 29 29 30 32 33 33 35 36 37 38 39 41 41 42 44 45 46 47 48 49 50 50
29 28 28 27 26 27 26 26 27 27 27 28 27 28 29 29 29 30 31 32 32 33 33 34 35 36 37 37 38 39 41 42 45 46 46 47 48 49 50 52 52 53 54
28 27 26 25 24 25 25 24 25 26 27 27 27 28 29 30 30 30 31 32 34 35 36 36 37 38 39 41 42 43 45 46 47 49 50 51 53 53 53 54 55 55 57
27 26 24 24 24 23 23 24 25 25 26 27 28 29 30 30 31 31 33 34 35 36 38 39 40 41 43 45 45 46 47 49 51 53 53 55 55 56 57 57 58 58 59
27 26 24 23 23 23 23 24 24 24 25 27 29 30 31 31 33 34 36 37 38 39 40 42 43 44 45 47 48 49 50 52 53 55 56 57 57 57 58 59 60 60 61
26 25 24 23 22 23 23 23 24 25 26 27 28 30 32 33 35 37 38 39 40 42 44 45 45 46 47 49 51 52 53 55 56 57 58 58 59 59 59 60 60 60 61
25 23 22 22 23 24 24 23 24 26 28 29 31 32 34 35 37 38 40 41 43 44 46 47 48 49 50 52 53 54 55 55 56 56 57 58 59 60 60 60 61 62 63
22 21 22 22 23 23 24 25 27 28 29 31 33 34 36 38 39 40 42 44 45 47 48 49 50 51 53 54 54 54 54 54 55 56 57 58 58 58 59 59 60 60 60
19 21 22 23 24 25 26 28 29 30 32 34 35 37 39 40 41 42 43 45 46 47 49 50 51 52 53 53 53 54 54 54 55 55 55 55 54 55 55 56 56 57 57
21 22 22 23 25 27 28 30 31 33 35 36 37 38 39 41 42 43 44 46 47 48 48 50 51 52 53 53 53 53 53 53 53 53 53 53 53 53 53 54 54 54 55
23 24 25 26 28 30 32 33 34 36 37 38 38 39 40 41 42 44 45 46 47 47 48 49 50 50 50 50 51 51 50 50 50 50 50 50 50 49 49 49 50 51 52
25 27 28 30 32 33 34 35 36 36 37 38 39 40 41 42 43 44 44 45 45 46 47 47 47 48 48 48 48 48 47 47 46 46 46 45 44 44 43 44 45 46 46
29 30 32 33 33 34 35 35 36 36 37 38 39 40 40 41 42 42 43 43 44 44 44 44 44 44 44 44 43 43 43 43 42 41 39 38 38 38 38 39 39 39 39
30 32 33 33 33 34 34 35 35 36 36 37 38 39 39 40 40 40 40 40 40 40 40 40 40 40 40 39 39 38 38 37 36 35 34 34 33 33 33 33 33 34 34
30 30 31 32 32 33 34 34 34 35 36 36 37 37 37 37 37 37 37 37 37 36 36 36 35 35 34 33 33 32 31 31 30 29 29 28 28 28 28 28 28 28 28
30 30 31 31 31 31 32 33 33 34 34 35 35 34 34 34 34 33 33 33 32 31 30 30 29 29 28 27 27 26 26 25 25 24 24 24 24 24 23 23 24 24 25
28 28 28 29 29 30 31 31 31 32 32 32 32 31 30 30 29 28 28 27 27 26 26 26 25 25 24 24 23 23 23 22 22 21 21 22 22 21 21 21 22 24 24
27 27 28 29 29 30 30 30 30 30 29 28 28 27 26 26 24 24 23 23 23 22 22 21 21 21 20 20 20 20 20 20 20 19 19 20 20 19 20 21 22 22 23
25 26 27 27 27 28 27 27 26 25 25 24 23 23 22 21 21 21 20 20 20 20 19 19 19 19 18 18 18 18 19 19 19 18 18 17 17 18 19 20 21 21 21
23 23 24 24 23 22 22 21 21 20 20 20 20 19 19 19 19 19 18 19 19 18 18 18 17 18 17 17 17 18 18 18 17 16 16 16 16 17 18 19 20 20 20
Wind_Direction
236 236 237 236 237 240 243 247 251 254 256 258 260 264 272 278 282 285 286 287 287 285 283 281 281 281 282 282 280 279 279 279 279 278 277 277 277 277 276 275 275 274 274
237 237 238 239 239 242 247 249 253 256 257 259 263 266 272 278 281 286 287 287 286 287 286 283 281 280 281 282 280 279 278 277 277 277 276 276 276 275 274 273 273 272 272
239 240 241 241 243 245 247 250 253 258 259 262 266 271 274 279 281 284 286 286 287 287 285 283 282 280 280 280 280 279 277 276 276 276 276 276 276 275 273 273 272 271 271
240 241 243 244 245 246 247 249 255 258 261 264 267 270 273 278 282 283 284 284 284 285 283 282 281 280 279 277 277 277 277 276 276 275 276 277 277 275 273 273 273 273 273
242 241 243 244 245 247 250 252 254 258 260 263 266 270 273 276 279 281 283 283 282 282 281 281 279 278 278 276 276 276 276 276 276 275 276 277 275 274 274 274 273 274 274
242 242 244 243 245 249 252 253 254 257 259 262 266 270 273 275 277 278 280 281 281 280 279 278 278 277 275 275 274 274 274 274 276 276 275 276 276 276 276 276 275 276 274
241 243 243 244 247 249 252 253 254 255 258 261 264 268 272 275 276 277 279 280 280 279 278 277 278 278 277 277 275 273 275 275 276 275 275 277 277 277 276 277 276 277 277
242 244 245 246 250 251 251 253 254 256 260 262 265 268 271 274 277 278 279 280 280 279 278 278 278 278 277 277 277 275 275 275 275 275 276 276 277 276 277 277 277 277 277
243 243 242 246 250 249 253 257 259 260 262 264 267 271 273 274 277 279 280 280 280 279 279 278 278 279 278 278 277 276 277 277 276 276 277 277 277 276 277 278 278 277 277
247 246 248 249 252 254 257 261 265 266 267 268 269 272 275 277 279 280 280 280 280 280 280 280 279 279 280 281 280 279 278 277 277 278 278 277 277 277 278 277 276 276 276
245 247 249 252 255 257 261 262 266 269 270 272 272 273 274 277 279 280 281 281 281 280 280 281 281 281 282 282 281 281 280 279 279 279 278 278 278 278 278 277 276 276 276
243 246 250 253 257 261 264 268 270 270 273 275 277 278 278 279 281 281 281 282 283 282 282 282 282 282 283 283 283 283 282 281 280 279 279 279 278 278 277 277 276 276 276
245 249 252 258 264 267 269 274 275 276 277 277 278 279 279 280 281 282 282 283 284 284 284 283 283 283 284 284 285 284 284 283 282 281 281 280 279 278 278 277 276 277 278
251 258 262 267 271 274 275 276 277 278 278 278 279 279 280 281 282 282 283 283 284 284 284 284 284 284 285 286 285 285 284 284 283 283 283 283 282 281 279 279 278 278 277
266 269 270 273 275 276 276 277 278 279 280 281 281 281 282 282 282 283 284 284 285 285 285 284 284 285 285 285 285 285 284 284 284 284 285 284 284 282 280 279 278 277 277
269 269 271 275 276 278 280 280 281 282 283 284 284 284 285 284 284 285 285 286 285 286 286 286 286 286 286 286 285 285 284 285 285 285 286 286 286 285 282 280 279 279 279
272 274 276 278 280 282 283 284 284 284 285 285 286 286 286 286 286 287 287 286 286 287 286 286 286 286 286 286 286 286 286 287 287 288 288 288 288 287 286 284 283 283 283
276 278 280 281 282 283 283 284 284 285 286 287 287 287 287 287 287 287 287 287 287 287 288 288 288 288 288 288 288 288 289 290 291 291 291 291 292 291 290 289 289 288 287
278 279 281 282 283 284 284 285 286 287 287 287 287 288 288 288 288 288 288 288 289 290 290 290 291 291 291 292 292 293 293 294 293 293 293 294 296 297 296 295 294 292 291
279 280 282 283 284 285 285 286 287 287 288 288 288 289 289 290 290 290 290 290 291 291 292 292 293 294 295 296 296 297 298 298 298 298 298 299 300 301 301 301 299 297 297
280 281 282 284 285 286 286 287 288 289 289 290 290 290 291 292 292 292 292 292 293 293 294 296 298 299 299 300 301 302 303 303 304 305 306 305 305 306 306 306 306 306 306
281 283 284 285 286 287 288 289 290 290 291 291 291 292 293 294 295 295 295 295 296 297 299 301 302 303 305 306 307 308 309 310 311 311 311 311 312 312 312 313 314 314 314
284 285 285 286 288 289 290 292 293 293 293 293 294 295 296 297 297 298 299 299 300 301 303 305 306 308 309 311 312 313 314 315 315 316 315 316 316 317 317 317 317 318 318
285 285 286 288 289 291 292 294 295 295 294 295 296 297 297 298 299 300 302 304 305 307 309 310 311 312 314 315 317 318 319 320 320 320 320 320 321 321 322 323 324 324 324
286 288 288 289 291 292 293 294 295 296 296 297 297 298 299 300 301 303 305 308 309 310 311 312 313 315 317 319 320 321 321 322 322 322 323 325 326 326 327 328 329 330 330
289 291 291 292 293 294 295 296 298 300 300 299 300 300 300 302 304 306 308 310 313 314 315 317 318 320 321 322 324 324 324 324 324 325 326 328 330 331 331 333 335 336 337
Height
5866 5867 5869 5870 5870 5871 5872 5873 5874 5875 5875 5876 5876 5876 5876 5875 5874 5874 5873 5872 5872 5871 5870 5870 5870 5869 5868 5868 5868 5867 5866 5866 5866 5865 5864 5864 5864 5863 5863 5862 5862 5862 5862
5862 5863 5865 5866 5867 5867 5868 5869 5870 5870 5871 5872 5872 5872 5871 5871 5870 5869 5869 5868 5868 5867 5866 5865 5865 5864 5864 5863 5862 5862 5861 5861 5860 5859 5859 5858 5858 5857 5857 5856 5856 5855 5855
5858 5859 5860 5861 5863 5863 5864 5865 5866 5866 5867 5867 5867 5867 5867 5866 5865 5864 5864 5863 5862 5862 5861 5860 5860 5859 5858 5858 5857 5856 5855 5854 5854 5853 5852 5852 5851 5850 5850 5849 5848 5848 5847
5853 5855 5856 5857 5858 5859 5859 5860 5861 5861 5862 5862 5862 5862 5862 5861 5860 5859 5858 5858 5857 5856 5855 5854 5854 5853 5852 5851 5851 5849 5848 5847 5847 5846 5845 5844 5843 5842 5842 5841 5840 5840 5839
5848 5850 5851 5852 5853 5854 5854 5855 5856 5856 5856 5856 5856 5856 5856 5856 5855 5854 5853 5852 5851 5850 5849 5849 5847 5847 5846 5845 5844 5842 5841 5840 5839 5838 5837 5836 5835 5834 5833 5832 5831 5830 5829
5842 5844 5845 5846 5847 5848 5849 5849 5850 5850 5851 5851 5851 5851 5850 5850 5850 5849 5848 5847 5846 5845 5843 5842 5841 5840 5839 5838 5836 5835 5834 5833 5831 5830 5828 5827 5826 5824 5823 5822 5820 5819 5818
5836 5838 5839 5840 5841 5842 5843 5844 5844 5844 5845 5845 5845 5845 5844 5844 5843 5842 5841 5840 5839 5838 5837 5835 5834 5833 5831 5830 5829 5827 5826 5824 5822 5820 5818 5817 5815 5814 5812 5810 5809 5807 5806
5830 5832 5833 5834 5834 5836 5837 5837 5838 5838 5838 5838 5838 5838 5838 5838 5836 5835 5834 5833 5832 5830 5829 5827 5826 5824 5823 5822 5820 5818 5816 5814 5812 5810 5808 5806 5804 5802 5800 5798 5796 5794 5793
5824 5826 5826 5828 5828 5829 5830 5831 5832 5831 5832 5832 5832 5831 5831 5830 5829 5828 5826 5825 5823 5822 5821 5819 5818 5816 5814 5812 5810 5808 5806 5804 5802 5799 5797 5794 5792 5790 5787 5785 5783 5781 5778
5818 5820 5821 5822 5823 5824 5825 5825 5825 5825 5826 5825 5825 5824 5823 5822 5821 5820 5819 5817 5815 5813 5812 5810 5808 5806 5804 5802 5800 5797 5795 5792 5790 5787 5784 5782 5779 5776 5774 5771 5769 5766 5763
5813 5814 5815 5816 5818 5819 5819 5819 5819 5819 5819 5818 5818 5817 5815 5814 5813 5812 5810 5809 5807 5804 5802 5800 5798 5796 5793 5790 5788 5785 5782 5780 5776 5773 5770 5768 5765 5762 5759 5756 5754 5751 5748
5807 5808 5810 5811 5812 5812 5813 5813 5813 5812 5812 5811 5810 5809 5808 5806 5804 5802 5801 5799 5797 5795 5792 5790 5787 5785 5782 5779 5775 5772 5769 5766 5762 5759 5756 5753 5750 5747 5743 5741 5738 5735 5732
5801 5802 5804 5805 5806 5806 5806 5806 5806 5805 5804 5804 5803 5801 5799 5797 5795 5793 5791 5788 5786 5784 5781 5778 5775 5772 5769 5765 5762 5758 5754 5751 5747 5744 5740 5737 5734 5731 5727 5725 5722 5719 5716
5794 5796 5798 5798 5799 5799 5799 5799 5799 5798 5797 5796 5794 5793 5790 5788 5786 5783 5781 5778 5775 5772 5769 5766 5762 5759 5755 5752 5748 5744 5740 5736 5733 5729 5725 5721 5717 5714 5711 5708 5705 5702 5699
5789 5790 5791 5791 5791 5792 5792 5791 5791 5790 5789 5787 5785 5783 5781 5778 5775 5772 5769 5767 5764 5760 5757 5753 5750 5746 5742 5738 5734 5730 5726 5722 5718 5714 5710 5706 5702 5698 5694 5691 5688 5685 5682
5783 5784 5784 5784 5784 5784 5783 5783 5782 5781 5779 5777 5775 5772 5770 5767 5764 5761 5758 5755 5751 5748 5744 5740 5736 5732 5728 5724 5720 5716 5711 5707 5703 5699 5695 5690 5686 5682 5678 5675 5671 5668 5665
5777 5777 5777 5776 5776 5776 5775 5774 5772 5770 5768 5766 5763 5761 5758 5756 5752 5749 5746 5742 5738 5735 5731 5727 5723 5719 5714 5710 5706 5701 5697 5693 5688 5685 5680 5676 5672 5668 5663 5660 5656 5653 5649
5769 5769 5769 5768 5767 5766 5765 5764 5762 5759 5757 5755 5752 5750 5747 5744 5741 5737 5733 5730 5726 5722 5718 5714 5710 5705 5701 5696 5692 5688 5683 5679 5675 5671 5667 5663 5659 5654 5650 5646 5643 5639 5636
5761 5760 5760 5759 5758 5756 5754 5753 5751 5748 5746 5744 5741 5738 5735 5732 5729 5725 5721 5718 5714 5710 5706 5702 5697 5693 5688 5684 5680 5675 5671 5667 5663 5659 5655 5651 5647 5643 5639 5635 5632 5628 5624
5752 5751 5750 5749 5747 5746 5744 5742 5740 5738 5736 5733 5730 5727 5724 5721 5717 5713 5710 5706 5702 5698 5694 5690 5686 5682 5678 5673 5669 5665 5660 5656 5653 5649 5645 5641 5637 5633 5630 5626 5622 5618 5614
5742 5742 5741 5739 5738 5736 5734 5732 5730 5728 5725 5722 5720 5717 5713 5710 5706 5703 5699 5695 5691 5688 5684 5680 5676 5672 5668 5664 5660 5656 5652 5648 5644 5640 5637 5633 5630 5626 5622 5618 5614 5610 5606
5734 5733 5731 5730 5728 5727 5725 5723 5720 5718 5715 5712 5709 5706 5703 5700 5696 5693 5689 5686 5682 5679 5675 5671 5667 5664 5660 5656 5652 5649 5645 5641 5638 5634 5630 5627 5624 5620 5616 5612 5608 5604 5600
5725 5723 5722 5721 5719 5717 5715 5713 5711 5708 5706 5703 5700 5697 5694 5691 5688 5685 5681 5678 5675 5671 5668 5664 5661 5657 5654 5650 5647 5643 5640 5636 5633 5629 5626 5622 5619 5615 5611 5607 5603 5599 5595
5717 5716 5714 5712 5711 5709 5706 5704 5702 5699 5697 5694 5692 5689 5687 5684 5681 5678 5675 5672 5669 5665 5662 5659 5655 5652 5649 5645 5642 5639 5635 5632 5629 5626 5622 5619 5615 5611 5608 5603 5599 5595 5590
5709 5708 5707 5705 5703 5701 5699 5697 5694 5692 5690 5687 5685 5683 5680 5678 5676 5673 5670 5667 5663 5660 5657 5654 5650 5647 5644 5641 5638 5635 5632 5628 5625 5622 5619 5615 5611 5608 5604 5600 5596 5591 5587
5702 5701 5699 5698 5696 5694 5692 5690 5688 5686 5684 5682 5680 5678 5675 5673 5670 5668 5665 5662 5659 5656 5652 5649 5646 5643 5640 5637 5634 5631 5628 5625 5622 5619 5615 5612 5609 5605 5602 5598 5593 5589 5584